STARLINK-33666, 63592

Orbit data source: Space-Track

STARLINK-33666, 63592 is a payload satellite owned by SpaceX/Seattle (US) in LEO that was launched on Mon, 14 Apr 2025 UTC via an FALCON 9 launch vehicle from the Air Force Eastern Test Range (AFETR). Payload-class satellites include a variety of spacecraft equipped with specific instruments for various scientific and technological missions. These include communications satellites like Starlink; space stations such as the ISS; scientific satellites like the Hubble; Earth observation satellites from companies like Planet Labs, Umbra, and HawkEye 360; GPS; miniature CubeSats for education and research; and military/defense satellites.

Loading next visibility...
Identifier
63592, 2025-076Z
Orbit
LEO
Last TLE update
13 hours ago
Origin
Manufacturer
SpaceX/Seattle
Mission
Operational Commercial Communications
Bus & Motor
STARLINK V2MO, Unknown motor
Mass
575 kg wet, ~530 kg dry
Launch date (UTC)
2025-04-14 (3 months ago)
Launch vehicle
FALCON 9
Launch site
Air Force Eastern Test Range (AFETR)
Object type
Payload
Rocket body
Debris
Shape & HBR
Box + 1 Pan, 29 m
Radar Cross Section
41.120 m², Large (>1 m²)

Expand to show TLE details & history

TLE from 13 hours ago
0 STARLINK-33666
1 63592U 25076Z   25182.70484022  .00023846  00000-0  87326-3 0  9992
2 63592  43.0043 299.2797 0001304 273.1860  86.8843 15.27579971 13443
Epoch: 2025-07-01T16:54Z
TLE epoch observation values (Epoch: 2025-07-01T16:54:58.195Z)
Latitude
0.00004°
Longitude
125.54079°
Altitude
482.777 km
Speed
7.626 km/s
True Right ascension
19h 57m 07s
True Declination
0° 00' 00"
Sunlit
Object was in full shadow at epoch
Visualization orbit readout
Latitude
31.47009°
Longitude
-98.29017°
Altitude
484.534 km
Speed
7.627 km/s
Apparent Right ascension
05h 20m 58s
Apparent Declination
-2° 42' 44"
Sunlit
Object is in daylight
Visualization observer readout
Local Sidereal Time
17:43:56
Azimuth
9.43° NNE
Elevation
-52.434°
Doppler factor
1
Orbital elements
Apogee altitude
485.889 km
Perigee altitude
484.099 km
Semi-major axis
6,863.131 km
Eccentricity
0.00013
Inclination
43.0043°
RAAN
299.2797°
Arg. of periapsis
273.186°
True anomaly
Unknown
Mean anomaly
86.8843°
Eccentric anomaly
Unknown
Mean motion
3.81733 °/min
Orbital period
94.31 mins
BSTAR
0.00087326
Loading maneuver chart data...
Loading SW <> Apogee altitude chart data...
Loading historical data...
Loading historical data...
Loading historical data...
Loading historical data...
Loading historical data...
Loading historical data...
Loading historical data...

STARLINK-33666 Visibility forecast

Observer location: undefined°, undefined°

Span
Click to sort rows by Start time (UTC) header in descending order
Start Az.
Max El. time (UTC)
Max El. Az.
Max El.
End time (UTC)
End Az.
4 mins2025-07-02 10:22:16.323Z181.834° SSW2025-07-02 10:24:16.323Z141.808° SSE18.989°2025-07-02 10:26:16.323Z103.947° ESE
6 mins2025-07-02 12:00:16.323Z246.761° WSW2025-07-02 12:02:16.323Z235.107° WSW42.361°2025-07-02 12:06:16.323Z72.684° E
6 mins2025-07-02 13:39:16.323Z285.393° WNW2025-07-02 13:42:16.323Z23.475° NE36.915°2025-07-02 13:45:16.323Z74.436° E
5 mins2025-07-02 15:19:16.323Z293.762° NW2025-07-02 15:21:16.323Z57.017° ENE43.621°2025-07-02 15:24:16.323Z101.566° ESE
4 mins2025-07-02 16:58:16.323Z252.326° W2025-07-02 17:00:16.323Z196.614° SSW25.484°2025-07-02 17:02:16.323Z157.367° SSE
|